Weather in Shabanovo

Russia / Tyumen Oblast     56°29′15″N   67°53′09″E
temp.,
°C
wind,
m/s
gust,
m/s
humid.,
%
clouds,
%
prec.,
mm/h
press.,
hPa
HPBL,
m
3 march, wed
wed323:00−17ssw5129479 0.0 1009284
02:00−17s51195100 0.0 1007274
05:00−16ssw61293100 0.0 1005356
08:00−15ssw61194100 0.1 1004392
11:00−12ssw61294100 1.0 1004602
14:00−7ssw71290100 0.5 1003689
17:00−6ssw61191100 0.6 1002758
20:00−5sw51192100 0.1 1002646
4 march, thu
thu423:00−5sw41094100 0.2 1002513
02:00−5ssw4995100 0.1 1001360
05:00−4ssw4109599 0.1 1000397
08:00−4ssw41094100 0.1 999473
11:00−2ssw5895100 0.4 998592
14:00−1ssw4797100 0.9 996589
17:00−1w4792100 1.9 995493
20:00−5wsw51192100 0.0 996382
5 march, fri
fri523:00−7wsw6139292 0.1 998499
02:00−11wsw5119283 0.0 1000262
05:00−12ssw5129258 0.0 1000264
08:00−9ssw61393100 0.5 1000757
11:00−5sw61191100 0.9 1000914
14:00−2wsw71186100 0.4 10001182
17:00−3wsw51186100 0.4 1003841
20:00−5ssw3891100 0.0 1003195
6 march, sat
sat623:00−2ssw2798100 0.6 1002281
02:00−1sw51194100 1.1 1001633
05:00−1sw51196100 1.5 1000661
08:00−2wnw2498100 1.3 998232
11:00−3nw71192100 3.2 999675
14:00−5w71185100 0.1 1004876
17:00−9w7138996 0.1 1007650
20:00−11w5139298 0.0 1008428
7 march, sun
sun723:00−14wsw499599 0.1 1010202
02:00−16wsw239798 0.0 101071
05:00−15sw2396100 0.0 100967
08:00−14nne0096100 0.0 100825
11:00−11ne1291100 0.1 1006278
14:00−9n2390100 0.2 1006487
17:00−9nw2591100 0.3 1007304
20:00−15wnw239457 0.0 100923